Weather History for Lewisburg, WV

Change the Weather History Date:

Wednesday, December 4, 2013

  Actual Average Record
Temperature  
Mean Temperature 47 °F 34 °F  
Max Temperature 61 °F 45 °F 72 °F (1982)
Min Temperature 32 °F 24 °F 12 °F (2002)
Degree Days  
Heating Degree Days 18    
Month to date heating degree days 101  
Since 1 July heating degree days 101  
Cooling Degree Days 0    
Month to date cooling degree days 0  
Year to date cooling degree days 0  
Moisture  
Dew Point 39 °F    
Average Humidity 77    
Maximum Humidity 100    
Minimum Humidity 53    
Precipitation  
Precipitation 0.00 in 0.10 in 0.01 in (2010)
Month to date precipitation 0.00 0.41  
Year to date precipitation 0.00 37.23  
Snow  
Snow 0.00 in - - ()
Month to date snowfall 0.0  
Since 1 July snowfall 0.0  
Snow Depth 0.00 in    
Sea Level Pressure  
Sea Level Pressure 30.00 in    
Wind  
Wind Speed 2 mph (NNE)    
Max Wind Speed 7 mph    
Max Gust Speed -    
Visibility 8 miles    
Events      
T = Trace of Precipitation, MM = Missing Value Source: NWS Daily Summary

Daily Weather History Graph

Daily Weather History Graph

Search for Another Location

Airport:

Trip Planner

Search our weather history database for the weather conditions in past years. The results will help you decide how hot, cold, wet, or windy it might be!

Date:

Astronomy

Dec. 04, 2013 Rise Set
Actual Time 7:21 AM EST 5:02 PM EST
Civil Twilight 6:52 AM EST 5:31 PM EST
Nautical Twilight 6:19 AM EST 6:04 PM EST
Astronomical Twilight 5:47 AM EST 6:35 PM EST
Moon 8:48 AM EST (12/4) 7:10 PM EST (12/4)
Length of Visible Light 10h 39m
Length of Day
9h 40m
Waxing Crescent, 4% of the Moon is Illuminated
Dec 4
Waxing Crescent
Dec 9
First Quarter
Dec 17
Full
Dec 25
Last Quarter
Jan 1
New

Hourly Weather History & Observations

Time (EST) Temp. Windchill Dew Point Humidity Pressure Visibility Wind Dir Wind Speed Gust Speed Precip Events Conditions
12:15 AM 39.2 °F 33.6 °F 36.0 °F 88% 29.95 in 10.0 mi NNE 8.1 mph - N/A   Overcast
12:35 AM 39.2 °F 35.0 °F 36.0 °F 88% 29.95 in 10.0 mi NNE 5.8 mph - N/A   Overcast
12:55 AM 39.2 °F - 36.1 °F 89% 29.95 in 10.0 mi Calm Calm - N/A   Overcast
1:15 AM 39.2 °F 35.0 °F 35.8 °F 88% 29.97 in 10.0 mi NNE 5.8 mph - N/A   Overcast
1:35 AM 39.4 °F 35.2 °F 36.0 °F 88% 29.98 in 10.0 mi NNE 5.8 mph - N/A   Overcast
1:55 AM 39.7 °F 37.6 °F 36.7 °F 89% 29.98 in 10.0 mi ENE 3.5 mph - N/A   Overcast
2:15 AM 40.3 °F - 36.7 °F 87% 29.99 in 10.0 mi Calm Calm - N/A   Overcast
2:35 AM 40.6 °F - 36.9 °F 86% 29.99 in 10.0 mi Calm Calm - N/A   Overcast
2:55 AM 40.1 °F - 36.9 °F 88% 29.99 in 10.0 mi Calm Calm - N/A   Overcast
3:15 AM 39.9 °F - 36.5 °F 88% 29.98 in 10.0 mi Calm Calm - N/A   Overcast
3:35 AM 38.7 °F - 35.6 °F 89% 29.98 in 10.0 mi Calm Calm - N/A   Overcast
3:55 AM 38.3 °F - 35.6 °F 90% 29.98 in 10.0 mi Calm Calm - N/A   Overcast
4:15 AM 38.1 °F 34.6 °F 35.6 °F 91% 29.96 in 10.0 mi NNE 4.6 mph - N/A   Mostly Cloudy
4:35 AM 37.6 °F 35.1 °F 35.4 °F 92% 29.96 in 7.0 mi NNE 3.5 mph - N/A   Clear
4:55 AM 36.3 °F - 34.5 °F 93% 29.96 in 7.0 mi Calm Calm - N/A   Scattered Clouds
5:15 AM 35.1 °F 32.2 °F 33.3 °F 93% 29.98 in 7.0 mi NNE 3.5 mph - N/A   Clear
5:35 AM 34.5 °F 31.6 °F 32.9 °F 94% 29.98 in 5.0 mi NNE 3.5 mph - N/A   Clear
5:55 AM 34.3 °F - 32.9 °F 94% 29.99 in 5.0 mi Calm Calm - N/A   Clear
6:15 AM 33.4 °F - 32.2 °F 95% 30.00 in 5.0 mi Calm Calm - N/A   Clear
6:35 AM 33.4 °F - 32.2 °F 95% 30.01 in 5.0 mi Calm Calm - N/A   Clear
6:55 AM 33.3 °F 30.2 °F 32.0 °F 95% 30.01 in 5.0 mi NE 3.5 mph - N/A   Clear
7:15 AM 32.2 °F - 31.6 °F 98% 30.02 in 4.0 mi Calm Calm - N/A   Clear
7:35 AM 33.6 °F 30.6 °F 32.2 °F 94% 30.02 in 4.0 mi North 3.5 mph - N/A   Clear
7:55 AM 32.7 °F - 32.0 °F 97% 30.02 in 3.0 mi Calm Calm - N/A   Scattered Clouds
8:15 AM 34.5 °F - 33.3 °F 95% 30.02 in 4.0 mi Calm Calm - N/A   Clear
8:35 AM 36.7 °F - 35.1 °F 94% 30.03 in 5.0 mi Calm Calm - N/A   Scattered Clouds
8:55 AM 38.3 °F - 36.3 °F 93% 30.03 in 7.0 mi Calm Calm - N/A   Scattered Clouds
9:15 AM 40.3 °F 38.2 °F 37.4 °F 89% 30.03 in 7.0 mi NNE 3.5 mph - N/A   Scattered Clouds
9:35 AM 41.9 °F 40.0 °F 37.9 °F 86% 30.04 in 10.0 mi NNE 3.5 mph - N/A   Scattered Clouds
9:55 AM 43.9 °F 42.3 °F 39.6 °F 85% 30.04 in 10.0 mi NNE 3.5 mph - N/A   Mostly Cloudy
10:15 AM 45.9 °F - 39.4 °F 78% 30.06 in 10.0 mi Calm Calm - N/A   Scattered Clouds
10:35 AM 47.7 °F - 40.1 °F 75% 30.05 in 10.0 mi Calm Calm - N/A   Mostly Cloudy
10:55 AM 50.4 °F - 41.2 °F 71% 30.05 in 10.0 mi Calm Calm - N/A   Mostly Cloudy
11:15 AM 50.9 °F - 41.2 °F 69% 30.05 in 10.0 mi Calm Calm - N/A   Mostly Cloudy
11:35 AM 52.0 °F - 42.1 °F 69% 30.04 in 10.0 mi Calm Calm - N/A   Mostly Cloudy
11:55 AM 52.9 °F - 41.7 °F 66% 30.03 in 10.0 mi SSW 3.5 mph - N/A   Scattered Clouds
12:15 PM 53.6 °F - 42.1 °F 65% 30.02 in 10.0 mi Calm Calm - N/A   Mostly Cloudy
12:35 PM 54.1 °F - 42.1 °F 64% 30.00 in 10.0 mi South 3.5 mph - N/A   Scattered Clouds
12:55 PM 56.5 °F - 42.6 °F 60% 30.00 in 10.0 mi WSW 3.5 mph - N/A   Mostly Cloudy
1:15 PM 55.4 °F - 42.3 °F 61% 29.99 in 10.0 mi WSW 4.6 mph - N/A   Overcast
1:35 PM 56.3 °F - 42.8 °F 61% 29.98 in 10.0 mi SSW 4.6 mph - N/A   Overcast
1:55 PM 57.6 °F - 43.2 °F 59% 29.97 in 10.0 mi Calm Calm - N/A   Mostly Cloudy
2:15 PM 58.8 °F - 43.3 °F 56% 29.96 in 10.0 mi SSW 3.5 mph - N/A   Scattered Clouds
2:35 PM 59.9 °F - 43.7 °F 55% 29.96 in 10.0 mi SSW 4.6 mph - N/A   Clear
2:55 PM 60.3 °F - 43.5 °F 54% 29.96 in 10.0 mi SW 5.8 mph - N/A   Clear
3:15 PM 60.1 °F - 43.7 °F 55% 29.97 in 10.0 mi SSW 5.8 mph - N/A   Clear
3:35 PM 59.2 °F - 43.7 °F 57% 29.97 in 10.0 mi Calm Calm - N/A   Clear
3:55 PM 59.2 °F - 43.9 °F 57% 29.97 in 10.0 mi South 4.6 mph - N/A   Clear
4:15 PM 59.0 °F - 44.4 °F 58% 29.97 in 10.0 mi WSW 3.5 mph - N/A   Scattered Clouds
4:35 PM 57.9 °F - 43.2 °F 58% 29.98 in 10.0 mi Calm Calm - N/A   Scattered Clouds
4:55 PM 56.7 °F - 43.2 °F 61% 29.98 in 10.0 mi Calm Calm - N/A   Mostly Cloudy
5:15 PM 54.7 °F - 43.0 °F 65% 29.98 in 10.0 mi ESE 3.5 mph - N/A   Scattered Clouds
5:35 PM 54.0 °F - 42.8 °F 66% 29.98 in 10.0 mi Calm Calm - N/A   Scattered Clouds
5:55 PM 52.2 °F - 42.6 °F 70% 29.98 in 10.0 mi Calm Calm - N/A   Scattered Clouds
6:15 PM 52.9 °F - 42.8 °F 69% 29.99 in 10.0 mi Calm Calm - N/A   Scattered Clouds
6:35 PM 52.5 °F - 43.0 °F 70% 29.99 in 10.0 mi Calm Calm - N/A   Mostly Cloudy
6:55 PM 51.1 °F - 42.4 °F 72% 30.00 in 10.0 mi North 3.5 mph - N/A   Mostly Cloudy
7:15 PM 50.2 °F - 42.8 °F 76% 30.00 in 10.0 mi Calm Calm - N/A   Overcast
7:35 PM 50.5 °F - 42.3 °F 73% 30.01 in 10.0 mi Calm Calm - N/A   Scattered Clouds
7:55 PM 49.5 °F - 42.3 °F 76% 30.02 in 10.0 mi North 3.5 mph - N/A   Mostly Cloudy
8:15 PM 47.7 °F - 41.7 °F 80% 30.02 in 10.0 mi Calm Calm - N/A   Scattered Clouds
8:35 PM 45.9 °F - 41.4 °F 84% 30.02 in 10.0 mi Calm Calm - N/A   Scattered Clouds
8:55 PM 46.9 °F - 42.3 °F 84% 30.02 in 10.0 mi Calm Calm - N/A   Scattered Clouds
9:15 PM 44.8 °F - 40.6 °F 85% 30.03 in 10.0 mi Calm Calm - N/A   Clear
9:35 PM 44.6 °F - 41.2 °F 88% 30.03 in 10.0 mi Calm Calm - N/A   Clear
9:55 PM 42.8 °F - 40.5 °F 91% 30.03 in 5.0 mi Calm Calm - N/A   Clear
10:15 PM 42.4 °F - 40.6 °F 93% 30.04 in 5.0 mi Calm Calm - N/A   Clear
10:35 PM 42.1 °F - 39.9 °F 92% 30.04 in 7.0 mi Calm Calm - N/A   Clear
10:55 PM 40.8 °F - 38.8 °F 93% 30.05 in 7.0 mi Calm Calm - N/A   Clear
11:15 PM 40.1 °F - 38.3 °F 93% 30.05 in 5.0 mi Calm Calm - N/A   Clear
11:35 PM 39.4 °F - 37.8 °F 94% 30.05 in 2.5 mi Calm Calm - N/A   Clear
11:55 PM 37.9 °F - 36.5 °F 95% 30.05 in 1.0 mi Calm Calm - N/A   Mist